EHI
8 10 14 16 17 16 14 12 11 10 9 8 6 4 2 0 0 0 1 2 3 3 3 3 3 3 3 4 5 4 3 1 2 3 3 2 1 0 0 1 2 3 3
10 13 16 18 19 18 15 13 11 9 8 7 6 5 3 1 1 1 1 2 3 3 3 3 3 2 2 4 6 6 5 4 4 5 3 1 0 0 0 0 1 2 3
13 16 19 21 22 19 15 13 10 8 7 6 6 6 5 4 2 1 1 1 3 3 3 3 2 1 1 3 6 8 8 7 6 5 4 2 1 1 2 1 0 1 1
14 16 20 24 25 22 17 13 11 10 8 8 7 7 6 5 3 1 1 2 3 4 4 3 2 1 1 3 6 8 10 9 7 5 4 3 3 3 3 2 1 1 1
15 17 20 24 26 25 22 18 14 12 11 10 9 7 6 5 3 2 3 5 6 5 5 4 4 3 3 4 6 8 9 9 8 6 5 4 3 3 3 3 3 3 3
17 19 21 23 25 29 28 23 18 14 14 13 11 9 8 7 5 5 6 8 7 6 6 5 5 6 6 5 6 7 9 9 9 7 6 5 4 3 3 3 3 3 4
18 20 23 25 28 30 31 29 24 18 15 14 13 11 10 9 7 7 7 8 7 6 5 5 5 6 7 6 6 7 8 8 7 7 6 6 5 4 3 3 3 3 3
18 20 23 27 30 32 32 32 28 21 16 14 14 13 11 10 9 7 8 8 7 6 5 5 5 5 6 6 6 7 7 7 7 6 6 6 6 4 3 2 2 2 2
17 18 20 24 30 34 34 31 29 23 17 13 12 12 11 10 9 8 7 7 7 6 5 6 6 5 5 6 7 6 6 6 6 6 6 6 6 4 2 1 1 0 1
14 14 16 21 28 34 33 31 28 23 17 12 10 9 9 10 9 8 8 7 7 7 7 6 5 4 4 6 7 6 4 4 4 4 5 6 6 5 4 2 0 0 0
10 10 13 19 27 32 32 30 26 22 18 14 10 8 8 9 10 9 10 10 9 9 8 4 2 2 2 4 4 4 3 3 3 3 4 4 4 5 5 3 1 0 0
9 10 13 18 24 28 29 29 26 22 20 16 12 9 9 10 11 12 12 13 12 10 9 5 2 1 1 2 3 3 3 3 3 3 3 3 3 4 4 3 2 1 1
11 11 13 16 18 21 24 27 26 22 19 17 14 12 12 12 12 13 14 14 12 11 11 9 5 3 3 3 4 4 3 3 3 3 3 4 4 4 4 4 5 4 2
13 13 13 12 12 15 20 24 25 22 18 16 14 12 12 13 13 14 13 12 12 13 13 13 10 6 5 5 6 5 4 3 3 3 4 5 6 6 6 6 6 6 4
14 14 13 11 9 12 17 20 23 22 21 20 16 13 12 12 13 13 12 11 12 13 15 16 14 11 8 7 6 6 4 2 2 3 5 6 6 6 6 6 6 6 6
12 13 14 13 13 13 15 17 19 22 25 24 20 16 15 14 12 11 11 11 11 13 15 16 16 15 13 10 6 4 3 2 2 3 5 5 5 5 5 5 5 5 6
11 13 15 17 18 16 15 16 18 22 26 26 23 21 20 16 12 10 11 11 11 13 15 15 16 17 16 12 6 2 1 1 2 4 5 6 6 6 6 5 5 4 4
15 15 17 19 21 19 16 17 21 24 26 26 26 25 23 19 15 13 11 10 11 13 14 14 14 16 15 11 5 3 2 2 4 5 6 6 6 6 6 6 6 5 4
16 17 18 19 21 20 18 18 22 25 25 25 25 24 23 21 17 14 13 11 11 13 15 14 13 13 13 10 6 3 3 4 4 6 6 6 6 6 6 6 6 5 4
15 16 17 19 20 20 20 21 23 23 22 22 22 21 21 21 19 17 15 14 13 13 14 13 13 14 14 12 6 3 4 5 4 4 4 4 4 4 3 3 4 4 4
15 15 16 17 18 19 21 23 23 20 19 20 20 19 19 20 20 19 18 16 14 13 13 14 15 16 16 13 6 2 3 4 3 2 1 1 1 1 1 1 2 3 3
15 15 14 14 15 16 18 20 20 18 18 18 19 18 18 18 18 19 18 16 15 15 14 14 15 16 16 13 6 1 1 2 2 1 0 0 0 0 0 0 1 2 1
14 15 14 14 13 13 13 14 15 15 16 16 17 17 16 14 14 15 16 15 15 15 14 13 12 13 13 11 6 2 0 1 1 0 0 0 0 0 0 0 0 0 0
13 15 16 15 12 10 10 10 11 12 13 14 15 15 14 12 11 12 14 14 14 13 12 11 10 9 9 9 7 3 0 0 0 0 0 0 0 0 0 0 0 0 0
11 13 15 13 9 7 7 8 10 10 11 12 13 14 12 11 10 10 10 10 10 9 9 9 9 8 7 6 6 3 1 0 0 0 0 0 0 0 0 0 0 0 0
9 12 12 9 7 5 5 7 9 10 10 11 12 12 11 10 10 9 8 7 7 7 7 8 9 9 7 5 4 3 2 1 0 0 0 0 0 0 0 0 0 0 0
Wind_Speed
8 9 9 9 8 6 6 6 5 4 3 2 1 1 0 0 0 0 1 1 1 1 2 1 1 1 1 1 1 1 1 1 1 2 2 3 2 1 1 0 1 1 2
7 9 9 8 8 7 7 6 6 4 3 2 2 2 2 1 1 0 0 1 1 1 2 2 1 1 1 1 1 1 1 0 0 1 1 2 4 3 2 1 0 1 0
12 11 10 8 8 8 8 7 6 5 4 3 2 1 2 1 1 1 0 1 1 1 1 2 2 1 1 1 1 1 2 1 1 1 2 2 1 2 3 2 1 1 0
11 10 10 9 9 8 7 6 6 5 4 4 3 3 2 2 2 1 1 1 1 1 1 1 2 1 1 1 1 1 1 1 1 1 0 2 3 1 2 3 2 1 1
12 12 11 11 9 8 7 6 6 5 4 4 4 4 3 2 1 1 1 1 1 1 1 1 2 1 1 1 0 1 1 1 1 1 0 0 1 1 2 2 3 2 2
11 10 9 8 7 7 7 6 6 5 5 4 4 4 4 3 2 1 1 1 0 0 0 1 1 1 1 1 1 1 1 1 1 1 1 1 1 1 2 2 2 2 3
11 10 9 9 9 9 8 7 7 6 5 5 4 4 4 4 3 3 2 1 1 1 1 1 1 1 1 1 1 1 1 0 0 1 1 1 1 2 2 2 1 1 2
10 10 11 11 11 10 9 8 7 6 5 5 5 4 4 3 2 3 2 2 2 2 2 1 1 1 1 1 1 1 1 0 0 0 0 0 0 1 2 2 2 1 2
9 9 9 10 10 10 10 9 8 6 5 5 5 4 4 3 3 3 2 1 1 1 1 1 1 1 1 1 1 1 1 0 0 0 0 0 1 0 1 2 3 3 1
8 7 7 8 9 9 8 8 8 7 6 5 5 4 4 4 3 2 2 2 1 1 1 1 1 1 1 0 1 1 0 0 1 0 0 1 1 1 0 1 1 2 3
8 8 6 6 6 6 7 7 6 5 5 5 4 3 3 3 3 2 2 2 1 1 1 1 1 1 1 1 1 1 1 0 1 1 1 1 1 1 1 0 1 1 2
6 6 5 5 5 5 6 6 6 5 5 4 3 3 3 3 3 3 2 2 2 2 1 1 1 1 1 1 1 2 1 1 1 2 1 2 1 1 1 1 1 1 2
5 5 5 5 5 5 5 5 5 5 4 4 3 3 3 3 3 3 2 2 2 1 1 1 1 1 1 1 2 2 2 2 2 2 1 2 1 1 1 1 2 2 2
5 5 5 4 5 4 4 5 4 4 4 4 5 4 4 4 3 3 2 2 2 2 2 2 2 2 2 2 2 2 1 1 2 2 2 2 2 2 2 2 2 2 1
4 5 5 4 4 4 3 4 4 3 4 4 4 4 4 3 2 2 2 2 2 3 2 2 2 2 2 2 2 2 2 2 2 2 2 2 2 2 2 2 2 1 1
5 5 5 5 4 5 4 4 4 4 4 4 4 3 3 2 2 2 2 2 2 2 2 2 2 2 2 3 3 2 2 3 3 3 3 3 3 3 3 3 3 3 3
5 6 6 6 6 6 6 5 4 4 4 4 3 3 3 3 3 3 2 2 2 2 2 2 2 3 4 4 4 4 3 3 3 3 3 3 2 2 2 2 3 3 4
4 4 4 4 4 4 4 4 3 3 3 3 3 3 3 3 2 2 2 2 2 2 2 2 3 3 3 3 3 4 3 2 3 3 3 3 3 3 2 2 2 3 4
4 3 4 4 4 4 4 4 3 3 3 3 3 3 4 3 2 3 3 3 2 2 2 2 2 3 3 3 3 3 2 2 3 3 3 3 4 5 4 2 3 4 4
2 3 2 3 3 3 4 4 3 3 3 4 4 3 3 3 4 4 3 2 2 2 2 2 2 3 3 3 3 3 2 2 2 3 3 4 4 5 4 3 3 4 5
2 3 3 3 2 3 4 4 3 3 4 3 3 2 3 3 3 2 2 2 2 1 1 2 2 2 3 3 3 3 2 3 2 2 3 3 5 5 5 4 4 6 5
1 2 3 2 2 3 4 3 2 2 2 2 2 2 2 2 1 1 1 1 2 2 2 2 2 2 3 3 3 3 3 3 2 3 3 3 5 5 5 4 4 5 3
1 2 3 2 1 1 3 3 2 1 1 2 2 1 1 1 1 1 1 1 1 1 2 2 2 3 2 2 3 3 3 3 2 3 4 4 4 4 4 5 5 3 2
2 3 4 4 1 1 2 2 1 1 2 1 1 1 1 0 1 0 1 1 2 2 2 2 2 2 2 2 2 2 2 2 2 2 3 4 4 3 3 4 3 2 2
2 2 3 3 1 1 1 0 1 2 2 1 1 1 1 1 1 1 1 2 2 3 3 3 2 2 2 4 3 2 2 2 2 1 1 1 1 2 2 2 2 2 2
2 2 2 2 2 1 0 1 0 2 2 1 0 1 1 1 1 1 2 3 2 3 3 3 3 3 4 3 3 3 2 2 1 1 1 2 2 2 3 3 3 3 3
Wind_Direction
172 164 165 161 156 154 150 154 152 158 143 124 123 125 148 232 270 195 133 126 128 118 111 101 87 101 107 118 107 97 69 33 58 54 4 350 343 343 281 240 215 225 213
164 170 168 168 165 166 163 160 165 167 168 171 171 168 166 192 198 237 96 154 149 152 130 130 124 122 109 67 83 111 88 318 84 117 70 0 348 351 345 357 109 235 233
173 175 174 175 170 173 173 171 174 173 176 170 138 107 67 34 25 9 312 252 170 155 146 142 145 152 149 175 200 160 148 220 292 140 137 144 246 314 329 344 14 3 321
173 174 175 177 179 179 173 169 171 173 174 160 149 151 157 179 213 214 221 248 209 168 153 157 157 163 151 172 227 168 164 156 265 312 195 175 169 160 312 325 331 321 296
173 175 178 180 179 176 172 169 168 173 174 160 158 157 167 186 196 190 202 228 240 205 181 160 153 156 152 166 145 115 127 152 175 209 246 61 87 140 162 281 314 329 300
174 176 175 167 167 168 169 170 170 177 173 169 168 166 173 173 169 197 206 228 241 251 233 158 166 176 166 167 157 143 130 147 159 183 167 154 166 206 174 217 264 289 294
171 173 174 172 171 171 172 173 172 176 176 175 182 183 181 175 184 192 192 191 209 224 240 196 190 194 190 172 150 134 160 167 163 209 204 179 196 191 175 172 239 278 288
171 174 180 179 178 178 174 170 169 174 177 182 193 191 179 175 188 195 188 197 205 214 209 183 186 190 176 162 142 142 200 174 248 308 159 198 249 171 164 167 162 302 310
170 173 179 177 175 175 177 173 172 176 181 183 186 186 187 184 193 201 193 205 211 205 176 173 186 202 179 171 146 157 218 137 266 273 294 231 271 215 179 166 162 161 224
167 172 177 180 178 178 176 171 173 180 183 182 185 189 197 197 193 185 186 195 201 195 180 184 180 181 201 158 139 167 214 95 301 268 320 308 289 298 252 187 183 171 180
167 170 171 166 163 165 169 171 172 173 176 184 188 183 192 190 177 179 190 185 181 185 190 186 173 169 197 195 170 206 192 199 290 305 288 287 275 280 284 261 232 210 184
161 155 150 147 150 161 167 166 167 174 185 182 181 188 189 182 183 194 198 192 190 184 181 166 174 202 213 209 196 219 221 217 249 269 279 291 309 303 273 259 258 246 218
139 137 136 141 159 169 168 162 166 172 174 166 178 198 195 191 198 206 206 198 186 189 185 165 175 207 224 222 220 214 218 215 228 240 240 269 299 297 280 267 266 262 266
131 134 147 158 161 163 165 165 170 171 162 166 179 192 202 202 205 203 199 189 184 190 201 206 211 213 222 223 215 206 214 229 241 232 225 238 228 239 254 264 260 254 262
134 145 156 165 160 155 161 164 169 173 173 171 179 197 204 195 185 175 176 177 192 209 215 215 226 229 226 227 217 222 220 227 246 249 244 241 231 238 245 258 247 232 230
156 161 156 163 165 168 178 180 185 187 174 173 185 192 188 182 182 182 176 173 201 222 224 221 222 233 248 254 227 210 229 229 231 242 254 256 263 275 282 279 260 228 219
161 170 170 176 178 182 182 188 189 173 166 178 188 187 175 176 189 188 180 195 208 216 237 243 230 238 257 255 234 219 220 232 236 235 243 259 271 265 271 290 298 283 261
161 172 178 180 174 172 175 179 171 168 175 185 190 189 184 191 197 191 199 212 212 216 229 242 235 239 261 256 241 227 224 238 247 240 229 230 250 259 252 260 281 279 274
174 173 181 176 170 173 175 162 168 179 183 192 193 190 187 192 202 215 221 213 203 219 234 243 239 239 267 267 240 215 218 240 258 257 245 229 238 260 255 241 263 284 286
155 143 143 119 131 174 160 156 175 177 196 202 199 192 189 197 212 222 221 207 197 212 225 252 248 238 253 262 248 215 212 236 258 268 263 248 249 261 253 229 237 261 273
138 123 124 130 159 167 149 156 171 198 209 199 187 194 203 210 219 219 207 194 193 208 238 259 267 255 249 253 242 224 207 222 235 251 261 263 265 264 260 243 235 247 260
101 119 130 143 164 152 138 143 186 212 198 178 180 199 208 223 224 199 207 204 204 222 249 260 277 276 266 257 253 240 222 222 218 245 257 262 270 270 268 255 262 264 266
83 129 132 119 107 135 137 151 217 195 168 162 175 189 187 215 199 180 211 237 239 240 258 253 264 279 285 284 281 264 252 250 237 256 271 282 282 284 277 273 275 270 251
78 98 108 105 80 52 107 153 200 160 130 131 153 170 186 260 319 251 223 229 240 243 254 248 255 271 288 292 293 286 283 283 274 286 296 294 282 275 276 288 286 262 236
91 107 123 127 136 107 87 181 164 130 108 111 164 194 200 217 249 272 262 242 236 223 224 232 226 235 263 260 241 237 262 259 252 289 324 323 317 301 294 288 282 271 267
115 108 124 133 141 138 119 321 328 127 130 143 223 234 227 245 248 260 323 325 282 279 253 234 222 236 240 244 235 236 252 267 219 124 261 273 268 264 268 269 274 271 262